Regional Weather Roundup
Issued by NWS Charleston, SC

Home | Current Version | Previous Version | Text Only | Print | Product List | Glossary On
Versions: 1 2 3 4 5 6 7 8 9 10 11 12 13 14 15 16 17 18 19 20 21 22 23 24 25 26 27 28 29 30 31 32 33 34 35 36 37 38 39 40 41 42 43 44 45 46 47 48 49 50
000
ASUS42 KCHS 281112
RWRCHS

REGIONAL WEATHER ROUNDUP
NATIONAL WEATHER SERVICE CHARLESTON SC
700 AM EDT THU MAY 28 2015

NOTE: "FAIR" INDICATES FEW OR NO CLOUDS BELOW 12,000 FEET WITH NO
SIGNIFICANT WEATHER AND/OR OBSTRUCTIONS TO VISIBILITY.

NOT ALL STATIONS ARE QUALITY CONTROLLED BY THE NATIONAL
WEATHER SERVICE. USE DATA WITH CAUTION...ESPECIALLY
DEWPOINT OBSERVATIONS.

SCZ027-030-031-034>040-042>050-281200-
...SOUTHEAST SOUTH CAROLINA...

CITY           SKY/WX    TMP DP  RH WIND       PRES   REMARKS
N CHARLESTON   PTCLDY    68  66  93 CALM      30.20R
WATERFRONT PAR   N/A     74  71  90 VRB2      30.17R
MOUNT PLEASANT LGT RAIN  66  66 100 CALM      30.21R
JOHNS ISLAND   SUNNY     66  64  94 CALM      30.20R FOG
PINOPOLIS      NOT AVBL
MONCKS CORNER  FAIR      66  63  88 CALM      30.21R FOG
SUMMERVILLE    FAIR      64  64 100 CALM      30.21S
BEAUFORT MCAS  PTCLDY    69  67  93 N3        30.20R
BEAUFORT ARPT  FAIR      70  70 100 CALM      30.19R FOG
HILTON HEAD IS CLEAR     66  66 100 CALM      30.20R
WALTERBORO     SUNNY     63  63 100 CALM      30.21R
ALLENDALE      FAIR      66  66 100 CALM      30.20R FOG

...SOUTHERN MIDLANDS AND PEE DEE...

CITY           SKY/WX    TMP DP  RH WIND       PRES   REMARKS
GEORGETOWN     NOT AVBL
KINGSTREE      NOT AVBL
ORANGEBURG     CLEAR     65  63  93 CALM      30.21R
BARNWELL       FAIR      64  64 100 CALM      30.21R
AIKEN          FAIR      68  64  88 CALM      30.24R
MANNING        FAIR      63  61  94 CALM      30.21S
COLUMBIA       PTCLDY    67  63  87 CALM      30.20R
SUMTER         FOG       68  66  94 CALM      30.20R VSB 1/4
FLORENCE       CLEAR     68  67  96 CALM      30.22R
MYRTLE BEACH   CLEAR     73  63  68 SE8       30.24R
N MYRTLE BEACH CLEAR     74  64  71 CALM      30.22R

$$

GAZ063-065-086>088-099>101-113>116-118-119-134>141-150-281200-
...SOUTHEAST GEORGIA...

CITY           SKY/WX    TMP DP  RH WIND       PRES   REMARKS
SAVANNAH ARPT  PTCLDY    66  65  96 N3        30.20R
HUNTER AAF     CLEAR     67  67 100 CALM      30.17R
FORT STEWART   CLEAR     64  62  93 CALM      30.17R
STATESBORO     CLEAR     64  32  30 CALM      30.20R
SYLVANIA       SUNNY     65  65 100 CALM      30.21R
CLAXTON        FAIR      61  61 100 CALM      30.19R

...CSRA...CENTRAL AND FAR SOUTHEAST GEORGIA...

CITY           SKY/WX    TMP DP  RH WIND       PRES   REMARKS
THOMSON        MOCLDY    70  70 100 CALM      30.24R
AUGUSTA-BUSH   MOCLDY    68  66  93 CALM      30.19R
AUGUSTA-DANIEL MOCLDY    72  66  81 SE3       30.21R
SWAINSBORO     FAIR     N/A N/A N/A CALM      30.21R
VIDALIA        PTCLDY    66  64  94 CALM      30.20R
EASTMAN        FAIR      66  66 100 CALM      30.21R FOG
HAZLEHURST     FAIR      67  67 100 CALM      30.18R
ALMA           CLEAR     64  63  96 CALM      30.18R FOG
WAYCROSS       CLEAR     65  65 100 CALM      30.18R
JESUP          FAIR      66  64  94 CALM      30.19R
BAXLEY         FAIR      66  64  94 CALM      30.18R
BRUNSWICK        N/A     64  63  94 CALM      30.19R VSB 1
SAINT SIMONS   NOT AVBL

$$

SCZ027-028-034-036>038-045-046-048>050-GAZ119-141-281200-
...LAKE AND SUPPLEMENTAL COASTAL OBSERVATIONS...

STATION/POSITION TIME  TEMP    WIND        PRES    WAVE   SWELL
                       AIR SEA DIR/SP/G            HT/PER HT/PER/DIR
                 (UTC) (F)     (DEG/KT/KT) (MB)    (FT/S) (FT/S/D)
UPR LAKE MARION  NOT AVBL
WINYAH BAY       NOT AVBL
LAKE MURRAY      1000   72     200/  6/  8 1022.0R
ACE BASIN NERRS  NOT AVBL
FORT PULASKI     1000   73 79  120/  3/  3 1022.1R
SAPELO ISLAND    1000   67      90/  3     1021.0S

$$

ANZ835-935-AMZ111-154-330-350-352-354-370-450-454-472-281200-
...C-MAN AND BUOY OBSERVATIONS...

STATION/POSITION TIME  TEMP    WIND        PRES    WAVE   SWELL
                       AIR SEA DIR/SP/G            HT/PER HT/PER/DIR
                 (UTC) (F)     (DEG/KT/KT) (MB)    (FT/S) (FT/S/D)
BUOY 41004       1050   75 78   90/  8/ 10 1022.2R   3/ 7   3/ 7
BUOY 41008       1050   77 78   90/  6/  6 1021.9R   3/ 8   3/100/ 8
FOLLY BEACH CMAN 1100   76      90/  6/  7 1022.7R
CAPERS NEARSHORE 1008   75     120/  8/ 12 1022.3R
FRIPP NEARSHORE  1000   76     140/  2/  4 1021.4R


STATION/POSITION TIME  TEMP    WIND        PRES    WAVE   SWELL
                       AIR SEA DIR/SP/G            HT/PER HT/PER/DIR
                 (UTC) (F)     (DEG/KT/KT) (MB)    (FT/S) (FT/S/D)
5E ST. MARYS GA  1021      79                N/A     3/ 8
FRYING PAN BUOY  1050   76 75  120/  8/ 10 1023.9R   3/ 8   3/120/ 8
BUOY 41025       1050   74 77  170/  6/  8 1024.6R   2/ 8   2/120/ 8
CAPE LOOKOUT NC  1100   73     110/  6/  6 1023.8R
BUOY 41002       1050   73 74   60/ 12/ 14 1023.4R   5/ 8   5/110/ 8
BUOY 41010       1020   76 79   70/ 16/ 19 1020.4R
ST AUGUSTINE FL  1100   76 78  110/ 11/ 12 1021.6R


$$


USA.gov is the U.S. government's official web portal to all federal, state and local government web resources and services.